INS-1B (41954 NORAD) Tracking and Keplerian Element Data

This shows tracking and keplerian element data for the satellite.

Feedback or suggestion? Click here.




ElementValue
Catalog41954
NameINS-1B
Epoch Orbit36396
Epoch Day239.10905359
Epoch Year2023
RAAN301.1158
Inclination97.1889
Eccentricity0.0003401
Argument of Perigee147.4249
Mean Anonmoly212.7225
Mean Motion15.72464454
Decay Rate0.00159141
L11 41954U 17008G 23239.10905359 .00159141 00000+0 11771-2 0 9999
L22 41954 97.1889 301.1158 0003401 147.4249 212.7225 15.72464454363965



Live tracking and technical data element details for INS-1B (NORAD 41954). INS-1B can be tracked NOW for your location showing map with azimuth and elevation plus other details from your city location.







IsCatalogInMostPopularTable: catalog: 41954, numindb: 382
Update: records affected: 1



GetName: 41954 INS-1B

Hit Count: updated at: Sat, 17 May 2025 09:43:38 GMT